Stubai Valley, Austria 16 day weather forecast

Slopes altitude range 935 m - 1000m

Number of lifts: 22 Pistes: 43km

In some cases the lift and piste totals shown are for the ski domain (e.g. Three Valleys) rather than individual resort (e.g. Courchevel)

Overview

The 16 day weather forecast is fully updated 4 times every day.

    • Sat 18 AUG 2018
    • Sat 18
    • 8C 12C
    • Sun 19 AUG 2018
    • Sun 19
    • 8C 12C
    • Mon 20 AUG 2018
    • Mon 20
    • 8C 13C
    • Tue 21 AUG 2018
    • Tue 21
    • 8C 13C
    • Wed 22 AUG 2018
    • Wed 22
    • 9C 14C
    • Thu 23 AUG 2018
    • Thu 23
    • 9C 13C
    • Fri 24 AUG 2018
    • Fri 24
    • 8C 12C
    • Sat 25 AUG 2018
    • Sat 25
    • 3C 6C
    • Sun 26 AUG 2018
    • Sun 26
    • 2C 3C
    • Mon 27 AUG 2018
    • Mon 27
    • 1C 9C
    • Tue 28 AUG 2018
    • Tue 28
    • 9C 18C
    • Wed 29 AUG 2018
    • Wed 29
    • 10C 18C
    • Thu 30 AUG 2018
    • Thu 30
    • 11C 19C
    • Fri 31 AUG 2018
    • Fri 31
    • 10C 15C
    • Sat 01 SEP 2018
    • Sat 01
    • 9C 16C
    • Sun 02 SEP 2018
    • Sun 02
    • 8C 11C

Date:

Time Type 0°C level Temp Chill Snow Cloud Speed Gust Dir Press
12:00 3936m 12°C 12_5 0cm 100% 5mph 6mph 1019mB
15:00 4019m 12°C 12_5 0cm 100% 5mph 6mph 1019mB
18:00 3966m 12°C 12_1 0cm 100% 1mph 2mph 1021mB
21:00 4019m 8°C 8_2 0cm 100% 2mph 2mph 1023mB
0:00 4048m 7°C 7_2 0cm 100% 2mph 2mph 1023mB
3:00 4012m 5°C 5_1 0cm 100% 1mph 2mph 1023mB
6:00 4006m 4°C 4_1 0cm 88% 1mph 1mph 1023mB
9:00 4051m 8°C 8_2 0cm 58% 2mph 2mph 1022mB
12:00 4060m 12°C 12_4 0cm 74% 4mph 4mph 1021mB
15:00 4157m 13°C 13_5 0cm 93% 5mph 5mph 1020mB
18:00 4141m 13°C 13_2 0cm 97% 2mph 3mph 1021mB
21:00 4055m 9°C 9_1 0cm 100% 1mph 2mph 1022mB
0:00 4123m 8°C 8_2 0cm 100% 2mph 2mph 1022mB
3:00 4078m 7°C 7_3 0cm 77% 3mph 3mph 1021mB
6:00 4093m 6°C 6_4 0cm 78% 4mph 5mph 1021mB
9:00 4149m 8°C 8_5 0cm 92% 5mph 5mph 1021mB
12:00 4063m 13°C 13_7 0cm 94% 7mph 6mph 1019mB
15:00 4175m 13°C 13_8 0cm 99% 8mph 8mph 1019mB
18:00 4168m 13°C 13_7 0cm 99% 7mph 9mph 1020mB
21:00 4135m 9°C 9_6 0cm 99% 6mph 7mph 1022mB
0:00 4174m 8°C 8_4 0cm 99% 4mph 4mph 1022mB
3:00 4149m 7°C 7_0 0cm 90% 0mph 1mph 1021mB
6:00 4159m 6°C 6_1 0cm 90% 1mph 1mph 1021mB
9:00 4131m 8°C 8_3 0cm 68% 3mph 2mph 1020mB
12:00 4055m 13°C 13_3 0cm 82% 3mph 4mph 1019mB
15:00 4186m 13°C 13_4 0cm 99% 4mph 4mph 1019mB
18:00 4194m 13°C 13_2 0cm 90% 2mph 3mph 1020mB
21:00 4235m 6°C 6_4 0cm 48% 4mph 6mph 1022mB
0:00 4240m 6°C 6_7 0cm 26% 7mph 8mph 1022mB
3:00 4195m 6°C 6_7 0cm 7% 7mph 8mph 1021mB
6:00 4179m 5°C 5_6 0cm 8% 6mph 6mph 1021mB
9:00 4196m 9°C 9_2 0cm 9% 2mph 2mph 1020mB
12:00 4185m 14°C 14_2 0cm 44% 2mph 3mph 1018mB
15:00 4219m 15°C 15_1 0cm 100% 1mph 3mph 1018mB
18:00 4210m 15°C 15_1 0cm 100% 1mph 2mph 1019mB
21:00 4271m 8°C 8_3 0cm 100% 3mph 4mph 1020mB
0:00 4207m 8°C 8_4 0cm 100% 4mph 5mph 1020mB
3:00 4167m 7°C 7_2 0cm 100% 2mph 3mph 1019mB
6:00 4126m 7°C 7_2 0cm 100% 2mph 2mph 1018mB
9:00 4124m 9°C 9_1 0cm 100% 1mph 1mph 1017mB
12:00 4072m 13°C 13_1 0cm 100% 1mph 2mph 1015mB
15:00 4118m 13°C 13_4 0cm 100% 4mph 5mph 1015mB
18:00 3932m 13°C 13_3 0cm 100% 3mph 4mph 1015mB
21:00 4017m 7°C 7_4 0cm 100% 4mph 5mph 1016mB
0:00 4027m 6°C 6_3 0cm 100% 3mph 5mph 1015mB
3:00 3972m 4°C 4_3 0cm 88% 3mph 4mph 1014mB
6:00 3855m 4°C 4_4 0cm 94% 4mph 4mph 1014mB
9:00 3853m 8°C 8_6 0cm 100% 6mph 6mph 1014mB
12:00 3841m 12°C 12_6 0cm 100% 6mph 5mph 1013mB
15:00 3892m 12°C 12_6 0cm 100% 6mph 7mph 1013mB
18:00 3805m 12°C 12_4 0cm 100% 4mph 5mph 1015mB
21:00 3764m 7°C 7_6 0cm 100% 6mph 6mph 1016mB
0:00 3629m 6°C 6_6 0cm 100% 6mph 7mph 1016mB
3:00 3594m 4°C 4_5 0cm 100% 5mph 6mph 1015mB
6:00 3498m 4°C 4_5 0cm 100% 5mph 5mph 1015mB
9:00 3486m 3°C 3_3 0cm 100% 3mph 4mph 1015mB
12:00 3585m 6°C 6_4 0cm 100% 4mph 4mph 1013mB
15:00 3648m 6°C 6_6 0cm 99% 6mph 6mph 1012mB
18:00 3608m 6°C 6_6 0cm 99% 6mph 7mph 1013mB
21:00 3522m 4°C 4_4 0cm 99% 4mph 5mph 1015mB
0:00 3414m 3°C 3_4 0cm 100% 4mph 5mph 1015mB
3:00 3331m 2°C 2_4 0cm 100% 4mph 5mph 1015mB
6:00 3201m 2°C 2_5 0cm 100% 5mph 6mph 1015mB
9:00 2919m 2°C 2_5 0cm 100% 5mph 6mph 1015mB
12:00 2957m 3°C 3_6 0cm 100% 6mph 7mph 1015mB
15:00 3094m 4°C 4_8 0cm 98% 8mph 9mph 1015mB
18:00 3116m 4°C 4_7 0cm 97% 7mph 8mph 1016mB
21:00 2994m 2°C 2_5 0cm 95% 5mph 6mph 1018mB
0:00 2987m 2°C 2_5 0cm 95% 5mph 5mph 1019mB
3:00 2962m 0°C 0_3 0cm 89% 3mph 4mph 1019mB
6:00 3044m -1°C -1_2 0cm 84% 2mph 3mph 1019mB
9:00 3074m 1°C 1_6 0cm 25% 6mph 6mph 1019mB
12:00 3360m 9°C 9_7 0cm 12% 7mph 6mph 1018mB
15:00 3487m 10°C 10_9 0cm 0% 9mph 8mph 1018mB
18:00 3625m 10°C 10_5 0cm 0% 5mph 6mph 1020mB
21:00 2854m 0°C 0_1 0cm 21% 1mph 3mph 1022mB
0:00 2570m 0°C 0_2 0cm 41% 2mph 3mph 1022mB
3:00 2577m 0°C 0_2 0cm 0% 2mph 3mph 1022mB
6:00 4078m 0°C 0_2 0cm 0% 2mph 3mph 1022mB
Afternoon 0mm 0 4021m 18°C 18_2 0cm 13% 2mph 4mph 1020mB
Morning 0mm 0 4353m 6°C 6_6 0cm 0% 6mph 6mph 1023mB
Afternoon 0.0260417mm 0.1875 4332m 18°C 18_3 0cm 53% 3mph 4mph 1021mB
Morning 0.322917mm 3.875 4353m 8°C 8_5 0cm 86% 5mph 5mph 1022mB
Afternoon 0.572917mm 6.875 4282m 19°C 19_3 0cm 86% 3mph 4mph 1020mB
Morning 0.46875mm 5.625 4064m 6°C 6_4 0cm 90% 4mph 4mph 1021mB
Afternoon 1.48438mm 16.25 3995m 15°C 15_3 0cm 74% 3mph 4mph 1018mB
Morning 0.119792mm 0.75 4016m 8°C 8_1 0cm 98% 1mph 2mph 1018mB
Afternoon 1.88021mm 15.25 3895m 16°C 16_6 0cm 68% 6mph 7mph 1013mB
Morning 0.838542mm 4.0625 3764m 8°C 8_9 0cm 100% 9mph 12mph 1009mB
Afternoon 2.48958mm 2.6875 3866m 11°C 11_5 0cm 100% 5mph 9mph 1004mB
Morning 6.24479mm 0.25 3117m 3°C 3_10 0cm 100% 10mph 11mph 1006mB

16 day outlook at a glance

Forecast issued: 18/08/2018 18:54:06

Chat

Your comments and questions. In a resort? Let us know what it's like!


Characters left 250

For terms and conditions see Readers Comments on the Cookie and privacy policy page.